Find Geoskan-2

NORAD ID: 64890 Int'l Des: 2025-155 Owner: GEOSK Country: RU operational
LEOCIRCULARRETROGRADESSO

实时位置

正在加载3D地球...

关于 Geoskan-2

正在加载描述...

即将过境

Passes for default location (London). Set your location on the main map for personalized predictions.

高度历史

Loading altitude history...

两行轨道根数

1 64890U 25155Q 26105.92999965 .00007209 00000-0 25285-3 0 9990
2 64890 97.4508 74.5438 0008359 39.9979 320.1876 15.29717078 71264
Epoch: Apr 15, 2026 • Age: 7 hours

当前状态

高度 482.5 km
速度 7.63 km/s
星下点 28.37°N, 24.39°W
发射日期 Jul 25, 2025
运行时间 0.7 years
类型 other

技术详情

分类 Payload
质量 3.00 kg
干质量 3.00 kg
总质量 3.00 kg
长度 0.30 m
直径 0.10 m
跨度 0.30 m
形状 Box
制造商 SPUT/GEOSK
平台类型 Cubesat 3U
阶段状态 In Orbit
所有者/国家 GEOSK/RU

Most Searched